Location: Le Petit-Vavre
(46.5081°N, 1.5239°E)
Time: 18:38:00
(UTC+00:00)

Cosmos 2366 rocket - Pass Details

Date: 03 March 2021
Orbit: 954 x 998 km, 82.9° (Epoch: 15 April)

Event Time Altitude Azimuth Distance (km) Brightness Sun altitude
Rises 20:05:29 0° 194° (SSW) 3,680 7.0 -25.0°
Reaches altitude 10° 20:08:00 10° 196° (SSW) 2,741 6.3 -25.5°
Maximum altitude 20:14:16 70° 280° (W) 1,054 4.2 -26.5°
Drops below altitude 10° 20:20:39 10° 5° (N) 2,776 6.5 -27.5°
Sets 20:23:13 0° 8° (N) 3,731 7.2 -27.9°
